When you browse on this site, cookies collect data to enhance your experience and personalize the content and advertising you see.
Visit our Privacy Policy to learn more. By continuing to use the site, you agree to this use of cookies and data.
  • In Spain
  • List of Countries
  • For 7 days
  • Water Temperature
  • Weather Map
  • Weather Widgets
  • user-avatar
    Login

    Hourly Weather Gedzhon

    Today, 5 June, Friday

    Time Temperature Precipitation Wind Pressure Humidity
    00:00 +20°C° 0 mm 1 mps 740 mmHg 94%
    01:00 +20°C° 0 mm 1 mps 740 mmHg 94%
    02:00 +20°C° 0 mm 1 mps 740 mmHg 92%
    03:00 +20°C° 0 mm 1 mps 740 mmHg 92%
    04:00 +20°C° 0 mm 1 mps 740 mmHg 91%
    05:00 +19°C° 0 mm 0 mps 740 mmHg 91%
    06:00 +22°C° 0 mm 1 mps 741 mmHg 85%
    07:00 +23°C° 0 mm 1 mps 741 mmHg 79%
    08:00 +25°C° 0 mm 1 mps 741 mmHg 69%
    09:00 +27°C° 0 mm 1 mps 741 mmHg 62%
    10:00 +29°C° 0 mm 1 mps 741 mmHg 55%
    11:00 +30°C° 0 mm 1 mps 741 mmHg 47%
    12:00 +31°C° 0 mm 2 mps 741 mmHg 45%
    13:00 +32°C° 0 mm 2 mps 740 mmHg 43%
    14:00 +32°C° 0 mm 2 mps 740 mmHg 40%
    15:00 +31°C° 0 mm 2 mps 740 mmHg 47%
    16:00 +30°C° 0 mm 2 mps 740 mmHg 54%
    17:00 +28°C° 0 mm 2 mps 740 mmHg 61%
    18:00 +26°C° 0 mm 2 mps 740 mmHg 68%
    19:00 +23°C° 0 mm 2 mps 741 mmHg 76%
    20:00 +21°C° 0 mm 1 mps 741 mmHg 84%
    21:00 +20°C° 0 mm 1 mps 741 mmHg 86%
    22:00 +19°C° 0 mm 1 mps 741 mmHg 88%
    23:00 +17°C° 0 mm 0 mps 742 mmHg 91%

    Tomorrow, 6 June, Saturday

    Time Temperature Precipitation Wind Pressure Humidity
    00:00 +16°C° 0 mm 0 mps 742 mmHg 91%
    01:00 +16°C° 0 mm 0 mps 741 mmHg 91%
    02:00 +16°C° 0 mm 0 mps 741 mmHg 92%
    03:00 +16°C° 0 mm 0 mps 741 mmHg 91%
    04:00 +16°C° 0 mm 0 mps 741 mmHg 89%
    05:00 +18°C° 0 mm 1 mps 742 mmHg 88%
    06:00 +21°C° 0 mm 1 mps 742 mmHg 78%
    07:00 +24°C° 0 mm 1 mps 742 mmHg 67%
    08:00 +26°C° 0 mm 1 mps 742 mmHg 57%
    09:00 +28°C° 0 mm 1 mps 742 mmHg 50%
    10:00 +30°C° 0 mm 1 mps 742 mmHg 43%
    11:00 +32°C° 0 mm 1 mps 742 mmHg 36%
    12:00 +33°C° 0 mm 1 mps 742 mmHg 35%
    13:00 +33°C° 0 mm 1 mps 741 mmHg 33%
    14:00 +33°C° 0 mm 1 mps 741 mmHg 32%
    15:00 +31°C° 0 mm 2 mps 741 mmHg 40%
    16:00 +29°C° 0 mm 2 mps 741 mmHg 48%
    17:00 +27°C° 0 mm 3 mps 741 mmHg 56%
    18:00 +25°C° 0.2 mm 2 mps 742 mmHg 62%
    19:00 +23°C° 0.2 mm 2 mps 742 mmHg 68%
    20:00 +21°C° 0.2 mm 1 mps 742 mmHg 75%
    21:00 +20°C° 0 mm 1 mps 743 mmHg 76%
    22:00 +19°C° 0 mm 1 mps 743 mmHg 78%
    23:00 +19°C° 0 mm 1 mps 743 mmHg 79%

    Day after tomorrow, 7 June, Sunday

    Time Temperature Precipitation Wind Pressure Humidity
    00:00 +18°C° 0 mm 1 mps 743 mmHg 81%
    01:00 +16°C° 0 mm 0 mps 743 mmHg 83%
    02:00 +15°C° 0 mm 0 mps 743 mmHg 85%
    03:00 +15°C° 0 mm 0 mps 743 mmHg 85%
    04:00 +15°C° 0 mm 0 mps 744 mmHg 86%
    05:00 +16°C° 0 mm 0 mps 744 mmHg 86%
    06:00 +18°C° 0 mm 0 mps 744 mmHg 75%
    07:00 +21°C° 0 mm 0 mps 745 mmHg 65%
    08:00 +24°C° 0 mm 0 mps 745 mmHg 54%
    09:00 +28°C° 0 mm 1 mps 745 mmHg 48%
    10:00 +29°C° 0 mm 1 mps 745 mmHg 42%
    11:00 +31°C° 0 mm 1 mps 745 mmHg 37%
    12:00 +31°C° 0 mm 1 mps 744 mmHg 36%
    13:00 +31°C° 0 mm 2 mps 744 mmHg 36%
    14:00 +31°C° 0 mm 3 mps 743 mmHg 35%
    15:00 +30°C° 0 mm 3 mps 743 mmHg 40%
    16:00 +29°C° 0 mm 3 mps 743 mmHg 45%
    17:00 +28°C° 0 mm 3 mps 743 mmHg 50%
    18:00 +25°C° 0 mm 2 mps 743 mmHg 58%
    19:00 +23°C° 0 mm 1 mps 744 mmHg 66%
    20:00 +19°C° 0 mm 0 mps 744 mmHg 75%
    21:00 +18°C° 0 mm 0 mps 744 mmHg 78%
    22:00 +17°C° 0 mm 0 mps 745 mmHg 82%
    23:00 +19°C° 0 mm 1 mps 745 mmHg 85%

    8 June, Monday

    Time Temperature Precipitation Wind Pressure Humidity
    00:00 +16°C° 0 mm 0 mps 745 mmHg 87%
    01:00 +16°C° 0 mm 0 mps 745 mmHg 90%
    02:00 +16°C° 0 mm 0 mps 745 mmHg 92%
    03:00 +16°C° 0 mm 0 mps 745 mmHg 92%
    04:00 +16°C° 0 mm 0 mps 746 mmHg 91%
    05:00 +16°C° 0 mm 0 mps 746 mmHg 91%
    06:00 +19°C° 0 mm 0 mps 746 mmHg 79%
    07:00 +22°C° 0 mm 0 mps 746 mmHg 68%
    08:00 +27°C° 0 mm 1 mps 747 mmHg 57%
    09:00 +29°C° 0 mm 1 mps 746 mmHg 50%
    10:00 +31°C° 0 mm 1 mps 746 mmHg 43%
    11:00 +33°C° 0 mm 1 mps 746 mmHg 37%
    12:00 +33°C° 0 mm 1 mps 746 mmHg 36%
    13:00 +33°C° 0 mm 1 mps 746 mmHg 35%
    14:00 +33°C° 0 mm 1 mps 745 mmHg 34%
    15:00 +32°C° 0 mm 2 mps 745 mmHg 39%
    16:00 +32°C° 0 mm 2 mps 745 mmHg 44%
    17:00 +31°C° 0 mm 2 mps 745 mmHg 50%
    18:00 +28°C° 0 mm 2 mps 746 mmHg 58%
    19:00 +25°C° 0 mm 1 mps 746 mmHg 66%
    20:00 +23°C° 0 mm 1 mps 747 mmHg 74%
    21:00 +22°C° 0 mm 1 mps 747 mmHg 76%
    22:00 +21°C° 0 mm 1 mps 747 mmHg 77%
    23:00 +18°C° 0 mm 0 mps 747 mmHg 79%

    9 June, Tuesday

    Time Temperature Precipitation Wind Pressure Humidity
    00:00 +18°C° 0 mm 0 mps 747 mmHg 80%
    01:00 +18°C° 0 mm 0 mps 747 mmHg 81%
    02:00 +17°C° 0 mm 0 mps 747 mmHg 82%
    03:00 +17°C° 0 mm 0 mps 747 mmHg 82%
    04:00 +18°C° 0 mm 0 mps 747 mmHg 82%
    05:00 +18°C° 0 mm 0 mps 747 mmHg 82%
    06:00 +21°C° 0 mm 0 mps 747 mmHg 71%
    07:00 +25°C° 0 mm 1 mps 747 mmHg 61%
    08:00 +28°C° 0 mm 1 mps 747 mmHg 51%
    09:00 +30°C° 0 mm 1 mps 747 mmHg 46%
    10:00 +32°C° 0 mm 1 mps 747 mmHg 41%
    11:00 +34°C° 0 mm 1 mps 747 mmHg 37%
    12:00 +35°C° 0 mm 2 mps 747 mmHg 35%
    13:00 +35°C° 0 mm 2 mps 746 mmHg 33%
    14:00 +36°C° 0 mm 3 mps 746 mmHg 32%
    15:00 +34°C° 0 mm 3 mps 746 mmHg 37%
    16:00 +33°C° 0 mm 3 mps 746 mmHg 43%
    17:00 +30°C° 0 mm 4 mps 745 mmHg 48%
    18:00 +27°C° 0 mm 2 mps 746 mmHg 56%
    19:00 +25°C° 0 mm 1 mps 746 mmHg 64%
    20:00 +20°C° 0 mm 0 mps 747 mmHg 71%
    21:00 +20°C° 0 mm 0 mps 747 mmHg 72%
    22:00 +21°C° 0 mm 1 mps 747 mmHg 72%
    23:00 +21°C° 0 mm 1 mps 747 mmHg 73%

    10 June, Wednesday

    Time Temperature Precipitation Wind Pressure Humidity
    00:00 +21°C° 0 mm 1 mps 746 mmHg 72%
    01:00 +21°C° 0 mm 1 mps 746 mmHg 72%
    02:00 +19°C° 0 mm 0 mps 745 mmHg 72%
    03:00 +21°C° 0 mm 1 mps 745 mmHg 74%
    04:00 +21°C° 0 mm 1 mps 745 mmHg 75%
    05:00 +21°C° 0 mm 1 mps 745 mmHg 76%
    06:00 +23°C° 0 mm 1 mps 745 mmHg 77%
    07:00 +24°C° 0 mm 1 mps 745 mmHg 77%
    08:00 +25°C° 0 mm 1 mps 745 mmHg 77%
    09:00 +25°C° 0.4 mm 1 mps 744 mmHg 79%
    10:00 +26°C° 0.4 mm 2 mps 744 mmHg 82%
    11:00 +26°C° 0.4 mm 2 mps 744 mmHg 84%
    12:00 +26°C° 0.5 mm 2 mps 743 mmHg 86%
    13:00 +25°C° 0.5 mm 2 mps 743 mmHg 88%
    14:00 +25°C° 0.5 mm 2 mps 742 mmHg 90%
    15:00 +24°C° 0.1 mm 2 mps 742 mmHg 91%
    16:00 +24°C° 0.1 mm 2 mps 742 mmHg 91%
    17:00 +24°C° 0.1 mm 2 mps 741 mmHg 91%
    18:00 +24°C° 0.4 mm 2 mps 741 mmHg 92%
    19:00 +23°C° 0.4 mm 2 mps 741 mmHg 93%
    20:00 +23°C° 0.4 mm 2 mps 741 mmHg 94%
    21:00 +22°C° 0.7 mm 3 mps 741 mmHg 95%
    22:00 +22°C° 0.7 mm 3 mps 741 mmHg 95%
    23:00 +22°C° 0.7 mm 3 mps 741 mmHg 96%
    Show more